Overview Statistics Trail Chart Weather Telemetry Raw packets
 

This is the latest recevied weather packets stored in our database for station/object HB9FHL-13. If no packets are shown the sender has not sent any weather packets the latest 10 day(s).

<< 124 125 126 127 128 129 130 >>
Time Temp. Humidity Pressure Rain* Wind** Luminosity Snow
1787889216 25° C - 1014.8 hPa 0 mm - - -
1787888915 23.33° C - 1011.3 hPa 0 mm - - -
1787888615 23.89° C - 1015 hPa 0 mm - - -
1787888317 23.89° C - 1015.2 hPa 0 mm - - -
1787888012 23.89° C - 1013.4 hPa 0 mm - - -
1787887712 25.56° C - 1014.2 hPa 0 mm - - -
1787887413 24.44° C - 1014.3 hPa 0 mm - - -
1787887111 25° C - 1013.3 hPa 0 mm - - -
1787886809 26.11° C - 1013 hPa 0 mm - - -
1787886509 25.56° C - 1012.9 hPa 0 mm - - -
1787886208 25.56° C - 1015.3 hPa 0 mm - - -
1787885908 26.11° C - 1012.4 hPa 0 mm - - -
1787885606 25.56° C - 1011.1 hPa 0 mm - - -
1787885302 25.56° C - 1010.1 hPa 0 mm - - -
1787885001 25.56° C - 1012.6 hPa 0 mm - - -
1787884701 25° C - 1012.9 hPa 0 mm - - -
1787884400 25.56° C - 1012.4 hPa 0 mm - - -
1787884103 26.11° C - 1012.5 hPa 0 mm - - -
1787883798 25.56° C - 1009.9 hPa 0 mm - - -
1787883498 26.11° C - 1012 hPa 0 mm - - -
1787883197 26.11° C - 1012.2 hPa 0 mm - - -
1787882897 26.11° C - 1013.7 hPa 0 mm - - -
1787882673 26.67° C - 1012.8 hPa 0 mm - - -
1787882596 26.67° C - 1012.8 hPa 0 mm - - -
1787882343 25.56° C - 1014 hPa 0 mm - - -

* Rain since midnight (hover to see other rain measurements)
** Current wind speed in m/s (hover to see current wind gust speed)